{"data":{"norad_id":51724,"intl_designator":"2022-016L","name":"STARLINK-3529","alt_names":[],"object_type":"PAYLOAD","status":"ACTIVE","operator":null,"country":"US","launch_date":"2022-02-21","launch_site_code":"AFETR","launch_vehicle":null,"mission":null,"orbit_class":"UNKNOWN","rcs_meters":null,"size_class":null,"mass_kg":null,"dimensions":null,"purposes":["comms"],"wikipedia_slug":null,"has_3d_model":false,"image_url":null,"decayed_at":null,"tle_current":{"epoch":"2026-09-19T10:39:31.645728Z","epoch_age_seconds":139705,"freshness":"FRESH","line1":"1 51724U 22016L   26262.44411627 -.00000140  00000+0  70640-5 0  9994","line2":"2 51724  53.1603 168.7031 0001068  93.9739 266.1385 15.33553390252816","mean_motion":15.3355339,"eccentricity":0.0001068,"inclination_deg":53.1603,"raan_deg":168.7031,"arg_perigee_deg":93.9739,"mean_anomaly_deg":266.1385,"bstar":7.064e-6,"rev_number":25281,"period_min":93.899567461424,"perigee_km":464.48983048919,"apogee_km":465.95157169414,"semimajor_km":6843.3577010917,"source":"CELESTRAK","updated_at":"2026-09-20T09:00:39.600170Z"}}}